Regional Weather Roundup
Issued by NWS Jackson, KY

Home | Current Version | Previous Version | Graphics & Text | Print | Product List | Glossary On
Versions: 1 2 3 4 5 6 7 8 9 10 11 12 13 14 15 16 17 18 19 20 21 22 23 24 25 26 27 28 29 30 31 32 33 34 35 36 37 38 39 40 41 42 43 44 45 46 47 48 49
000
ASUS43 KJKL 031410
RWRJKL

EAST KENTUCKY HOURLY WEATHER ROUNDUP
NATIONAL WEATHER SERVICE JACKSON KY
900 AM EST TUE MAR 03 2015

NOTE: "FAIR" INDICATES FEW OR NO CLOUDS BELOW 12,000 FEET WITH
NO SIGNIFICANT WEATHER AND/OR OBSTRUCTIONS TO VISIBILITY.

* THESE REPORTS ARE NOT UNDER NWS QUALITY CONTROL AND MAY NOT
  REPORT WEATHER SUCH AS PRECIPITATION AND FOG.

KYZ079-080-083-085-087-088-110-112-115-119-120-031500
...EASTERN KENTUCKY...

CITY           SKY/WX    TMP DP  RH WIND       PRES   REMARKS
JACKSON        CLOUDY    33  24  69 SE3       30.12F
LONDON         CLOUDY    39  28  64 CALM      30.13S
SOMERSET*      CLOUDY    39  34  81 CALM      30.13F
MONTICELLO*    CLOUDY    49  44  83 CALM      30.13F
MIDDLESBORO*   CLOUDY    41  35  77 SE8       30.20R
BLACK MTN*       N/A     37  37 100 S8          N/A  WCI  31
PIKEVILLE APT* CLOUDY    32  28  86 SE5       30.11F FOG     WCI  27
BIG SANDY*     CLOUDY    34  27  74 S7        30.13F WCI  28
MOREHEAD APT*  CLOUDY    34  23  64 VRB5      30.12F WCI  30
$$

KYZ035-036-041-042-044-050-067-078-099-031500
...CENTRAL KENTUCKY...

CITY           SKY/WX    TMP DP  RH WIND       PRES   REMARKS
MT STERLING*   CLOUDY    34  27  75 CALM      30.12S
FLEMING/MASON* CLOUDY    34  25  69 S6        30.12S WCI  29
DANVILLE*      CLOUDY    36  30  80 S6        30.10F WCI  31
RICHMOND*      CLOUDY    39  34  81 S8        30.10S WCI  34
LEXINGTON      CLOUDY    35  26  69 SE9       30.08F WCI  28
FRANKFORT      CLOUDY    34  24  67 SE7       30.06F WCI  28
$$

KYZ091>093-OHZ055-061-077-WVZ005-015-034-035-042-031500
...SOUTHERN OHIO/WEST VIRGINIA...

CITY           SKY/WX    TMP DP  RH WIND       PRES   REMARKS
COVINGTON      CLOUDY    32  22  66 S9        30.07R WCI  24
COLUMBUS       CLOUDY    28  18  66 SE6       30.11F WCI  22
DAYTON         CLOUDY    29  19  66 SE9       30.07F WCI  20
WILMINGTON     CLOUDY    30  19  63 SE8       30.05F WCI  22
HUNTINGTON     CLOUDY    31  26  82 SE3       30.12F
CHARLESTON     FRZ RAIN  31  27  85 CALM      30.14F FOG
PINEVILLE*     MIX PCPN  36  36  99 MISG      30.23S
BECKLEY        CLOUDY    33  25  72 SE10G16   30.18S WCI  25
BLUEFIELD      CLOUDY    36  25  64 S12G22    30.19F WCI  28
$$

VAZ002-007-008-TNZ017-027-036-066-071-031500
...SOUTHWEST VIRGINIA/EAST TENNESSEE...

CITY           SKY/WX    TMP DP  RH WIND       PRES   REMARKS
WISE*          CLOUDY    41  36  81 S5        30.17R
JONESVILLE*    CLOUDY    34  34 100 CALM      30.22F FOG
ABINGDON*      CLOUDY    42  28  57 E5        30.20R
BRISTOL        LGT RAIN  41  33  73 CALM      30.21R
KNOXVILLE      CLOUDY    43  38  82 CALM      30.20R
OAK RIDGE      LGT RAIN  40  39  97 CALM      30.23R FOG
CROSSVILLE     CLOUDY    48  46  93 S5        30.16S FOG
NASHVILLE      CLOUDY    49  45  86 SE6       30.11F
$$

...KEY TO REMARKS...
VSB - VISIBILITY IN MILES
WCI - WIND CHILL INDEX
HX  - HEAT INDEX

$$


USA.gov is the U.S. government's official web portal to all federal, state and local government web resources and services.